Tracking 28790 objects as of 19-Apr-2024
HD Live streaming from Space Station
objects crossing your sky now

SL-16 DEB

Track SL-16 DEB now!
10-day predictions


NORAD ID: 22337
Int'l Code: 1992-093AA
Perigee: 846.6 km
Apogee: 1,064.5 km
Inclination: 71.3 °
Period: 104.0 minutes
Semi major axis: 7326 km
RCS: 0.6915 m2 (medium)
Launch date: December 25, 1992
Source: Commonwealth of Independent States (former USSR) (CIS)
Launch site: TYURATAM MISSILE AND SPACE COMPLEX (TTMTR)

Note: This is SATELLITE DEBRIS
Your satellite tracking list
Your tracking list is empty




NASA's NSSDC Master Catalog

Two Line Element Set (TLE):
1 22337U 92093AA  24110.21584035  .00000284  00000-0  26779-3 0  9994
2 22337  71.2894  70.7549 0148727 349.5154  10.2861 13.84366499580646
Source of the keplerian elements: AFSPC